Location: Unspecified
(40.7945°N, 0.0000°E)
Time: 08:14:47
(UTC+00:00)

deb Explorer IX - Pass Details

Date: 27 January 2021
Orbit: 537 x 1103 km, 38.8° (Epoch: 23 February)

Event Time Altitude Azimuth Distance (km) Brightness Sun altitude
Rises 18:39:45 0° 268° (W) 3,736 ? -16.8°
Reaches altitude 10° 18:42:36 10° 266° (W) 2,711 ? -17.3°
Maximum altitude 18:49:05 74° 183° (S) 900 ? -18.5°
Enters shadow 18:51:49 32° 105° (ESE) 1,372 ? -19.0°
